RH
10 9 9 9 9 9 9 9 8 8 8 7 7 7 7 8 8 8 8 8 8 8 8 8 8 7 7 7 7 7 7 7 8 7 8 8 8 8 8 8 8 8 8 8 8 8 8 8 8 8 7 7 7 7 6 6 6 6 6 6 6 6 6 6 6 6 7 8 9 12 16 20 23 26 28 33 39 45 52 59 64 69 72 72 71 70
10 9 9 10 9 9 9 9 8 8 8 8 8 8 8 8 8 8 8 8 8 8 8 8 8 8 8 8 8 8 8 8 9 9 9 9 9 10 10 10 10 10 10 10 10 10 10 9 9 9 9 8 8 8 7 7 7 7 6 6 6 6 6 6 6 5 5 5 6 7 9 13 17 20 23 26 31 37 44 52 60 66 70 71 71 71
9 10 9 10 9 9 9 9 9 9 9 9 9 9 9 8 9 9 9 9 9 9 9 9 9 9 9 9 9 10 10 10 10 10 10 11 11 11 11 11 12 12 12 12 11 11 11 11 11 10 10 9 9 9 8 8 8 7 7 7 7 7 7 6 6 6 6 5 5 5 5 7 10 14 19 23 26 30 35 42 50 58 65 68 70 71
10 10 9 10 10 10 9 9 9 9 10 10 10 10 9 9 10 10 10 10 10 10 10 10 11 11 11 11 11 11 11 11 12 12 12 12 13 13 13 13 14 14 13 13 13 13 12 12 12 11 11 10 10 9 9 9 8 8 8 8 8 8 7 7 7 7 7 7 6 6 5 5 7 9 13 18 22 26 29 33 39 47 56 63 68 70
10 10 10 10 10 10 10 10 10 10 10 10 10 10 11 11 11 11 11 11 12 12 12 12 12 12 12 12 12 12 12 12 13 13 14 14 14 15 15 15 15 15 15 15 14 14 13 13 12 12 12 11 10 10 9 9 9 9 8 8 8 8 8 8 8 9 9 8 8 7 6 6 6 7 8 13 18 23 26 28 31 36 43 54 62 68
11 11 11 11 11 10 10 10 10 11 11 11 11 12 12 13 13 13 13 13 13 13 13 13 13 13 13 13 13 13 13 14 14 15 15 15 16 16 17 17 17 17 16 16 15 15 14 14 13 13 12 12 11 11 10 10 9 9 9 9 9 9 9 9 9 10 10 10 10 9 9 9 8 7 7 10 15 20 24 26 27 28 31 41 52 61
12 12 12 11 11 11 11 11 12 13 13 13 13 13 14 14 15 15 15 15 14 14 14 14 14 14 14 14 14 14 15 15 15 16 16 17 18 18 19 19 19 18 18 17 16 15 15 14 14 13 13 13 12 12 11 10 10 10 10 9 10 10 10 10 11 11 11 11 11 12 12 12 12 11 10 11 13 17 21 25 26 26 25 29 39 51
13 13 12 12 12 12 13 14 15 15 16 16 16 16 15 16 16 16 16 16 16 15 15 15 14 15 15 15 15 16 16 17 17 17 18 19 20 21 21 21 21 20 19 18 17 16 16 15 14 14 14 13 13 13 12 12 11 11 11 11 11 11 11 11 12 12 12 13 14 14 15 15 15 15 13 13 13 16 19 23 25 26 25 26 30 38
15 14 14 14 15 16 17 17 17 17 18 18 18 18 17 17 17 16 17 16 17 17 17 16 16 16 16 16 16 17 18 19 19 20 20 21 22 23 23 23 23 22 20 19 18 17 16 15 15 15 14 14 14 13 13 13 12 12 12 12 11 12 12 12 13 13 14 15 16 17 18 18 17 17 16 14 14 15 17 21 24 26 27 26 27 30
17 18 18 18 19 20 20 20 19 18 18 18 19 19 19 19 18 18 18 18 17 18 18 18 18 17 17 17 18 19 20 21 22 23 23 24 24 25 26 25 25 23 22 20 19 17 16 16 15 15 15 15 14 14 14 13 13 12 12 12 12 12 13 13 14 14 15 16 17 18 19 19 19 19 18 16 15 15 16 19 22 24 26 26 26 26
21 21 21 21 22 22 22 21 19 19 18 18 19 19 20 21 21 21 21 20 19 19 19 20 20 20 19 20 21 23 24 24 25 25 25 25 26 26 27 27 26 25 23 21 19 17 16 16 16 16 16 16 15 15 14 13 13 13 12 12 13 13 14 14 15 15 16 17 18 18 19 20 20 21 20 19 17 15 15 17 19 22 24 24 24 25
23 23 22 22 22 21 20 19 19 18 18 19 20 21 21 23 23 24 24 24 23 22 22 22 22 23 24 24 26 27 29 28 28 27 26 26 27 27 28 28 28 27 25 22 20 18 16 16 17 17 17 16 16 15 14 13 13 13 13 13 14 15 16 17 17 18 18 18 19 19 20 20 21 22 23 22 19 17 15 15 17 18 20 22 23 24
23 23 23 22 21 20 19 19 19 19 20 21 22 23 24 24 25 26 26 26 26 26 26 26 26 26 27 29 31 32 32 32 31 30 28 28 28 29 30 30 29 28 25 22 20 18 17 17 17 17 17 17 16 15 14 14 14 14 14 15 16 17 19 20 20 21 21 22 22 22 22 22 23 24 24 24 23 21 19 16 15 15 16 18 20 22
24 24 23 22 21 20 19 20 20 21 22 23 24 25 26 26 27 27 28 27 28 28 29 29 30 31 31 33 34 35 35 34 32 30 29 29 29 30 30 30 30 28 25 23 20 19 18 18 18 18 18 17 16 15 15 15 15 15 16 17 18 19 21 22 23 25 26 27 27 27 27 26 26 26 25 25 25 24 24 21 17 15 14 15 17 20
25 25 24 22 21 21 20 21 22 23 23 24 25 26 27 27 28 29 29 29 30 31 32 32 33 34 34 35 35 34 35 34 33 31 30 30 29 29 29 29 29 27 24 22 20 19 19 19 19 19 19 18 17 17 17 17 17 18 18 19 20 21 22 24 26 27 29 30 32 33 34 33 32 30 28 27 26 25 25 24 22 19 16 15 15 17
26 25 24 23 22 22 21 22 23 24 25 26 27 28 28 29 29 30 31 32 33 33 35 36 36 36 35 34 34 33 33 32 33 33 32 31 29 28 28 28 27 25 23 21 20 20 20 20 21 20 20 19 19 19 19 19 20 20 21 21 22 23 24 25 27 29 31 32 34 36 37 38 37 35 33 30 28 27 26 25 24 23 20 18 16 16
26 25 24 23 23 23 23 24 25 26 27 28 29 30 30 31 31 32 33 34 35 36 37 38 38 38 37 35 33 32 31 32 32 33 32 31 29 26 25 26 25 25 23 22 21 21 22 22 22 22 22 22 22 22 22 22 22 22 23 23 24 24 26 27 29 30 31 32 34 36 37 38 39 38 37 35 32 30 27 26 24 23 22 21 19 18
25 25 24 24 24 24 25 26 27 29 30 31 31 32 32 33 34 35 36 37 38 39 39 39 39 38 38 36 33 31 31 32 33 32 32 31 28 25 24 25 25 25 25 24 24 24 24 24 24 25 25 25 25 25 25 25 24 24 25 25 25 26 26 28 30 32 33 34 34 35 35 36 38 39 39 38 36 33 30 27 25 25 24 24 23 21
25 25 25 25 26 27 28 29 30 31 32 32 33 33 34 35 36 37 38 39 39 40 40 40 39 38 37 36 33 31 31 33 33 33 32 31 28 25 24 26 27 28 27 26 26 26 27 27 27 28 29 29 29 28 28 28 28 27 27 27 27 27 27 29 32 35 35 35 34 33 33 34 36 38 39 39 37 35 33 30 28 26 26 25 25 24
26 26 25 26 28 29 30 31 32 33 34 34 35 35 36 36 37 38 39 40 40 40 39 38 38 37 35 34 32 32 32 33 33 33 32 31 29 27 27 29 30 31 30 28 28 29 30 30 31 31 32 32 32 32 32 32 32 31 30 29 29 29 29 32 35 37 37 35 33 32 32 33 35 37 40 39 39 38 36 33 31 28 26 26 26 25
27 27 27 28 30 31 32 33 34 35 35 36 36 36 37 38 39 39 40 40 40 39 38 37 36 34 33 33 33 33 32 33 33 33 33 32 31 31 30 32 33 33 32 31 31 32 34 35 35 35 34 35 35 36 36 35 35 34 33 32 31 31 31 35 38 40 41 38 35 32 33 33 34 36 38 38 38 39 39 36 33 30 28 27 26 26
28 28 29 30 32 33 34 35 35 36 37 37 37 38 39 39 39 40 40 39 38 36 35 34 33 32 32 32 32 32 32 33 34 34 34 34 33 33 33 33 34 34 34 34 35 36 38 39 38 37 36 37 37 38 38 37 36 36 35 34 34 33 34 36 38 40 41 39 37 34 34 34 33 33 33 35 38 39 39 37 35 33 30 29 27 27
30 30 31 32 34 35 35 36 37 37 38 38 38 39 39 40 40 39 38 37 35 33 31 30 29 30 31 31 31 31 31 33 34 35 35 35 35 34 34 35 35 36 36 37 38 40 41 40 39 38 38 39 39 39 38 37 37 36 36 36 36 36 36 36 37 37 37 36 36 35 35 34 33 32 33 35 38 40 39 37 36 34 31 30 29 28
32 33 34 34 35 36 36 37 37 38 38 39 39 39 39 39 38 36 34 32 31 30 29 29 29 29 30 29 29 30 31 33 34 35 36 36 36 36 36 37 37 37 38 39 41 42 42 41 40 40 41 41 40 39 38 37 37 37 37 37 38 37 37 37 36 36 36 36 36 36 35 35 34 34 33 34 36 38 37 36 35 33 32 31 30 29
33 34 35 35 35 36 37 37 37 37 38 38 37 37 36 35 34 32 29 28 28 29 30 30 30 29 28 28 30 31 31 33 35 36 37 38 37 37 37 38 39 40 40 41 42 43 43 43 43 43 43 42 40 39 38 38 38 38 38 39 39 39 39 38 37 37 36 36 36 36 36 35 35 34 34 34 34 34 33 34 34 33 32 32 32 30
32 32 32 33 33 34 34 35 35 35 36 36 36 35 33 32 30 28 27 27 28 29 30 30 30 29 29 30 30 31 31 33 35 37 38 39 38 38 38 40 41 42 43 43 44 45 45 45 45 45 44 42 40 39 38 39 39 40 40 41 40 40 40 39 38 38 37 37 38 38 37 36 35 35 35 35 35 35 35 35 35 34 33 34 34 33
29 30 30 31 31 32 32 33 33 33 34 34 33 32 31 29 28 28 27 28 29 30 30 30 30 30 31 31 31 31 31 33 36 37 39 39 39 39 39 42 43 45 45 45 46 46 47 47 47 46 44 41 40 39 40 40 41 42 42 42 42 41 40 40 40 40 40 40 40 40 39 38 37 35 35 35 36 36 36 36 36 35 35 37 37 36
29 29 29 30 30 31 31 31 31 31 32 32 31 30 29 28 28 29 29 29 30 30 31 31 31 31 32 32 31 31 31 34 36 38 40 40 40 40 41 43 45 47 47 47 47 46 46 47 46 45 44 42 42 42 42 42 43 44 44 43 42 42 41 41 42 42 42 42 42 42 41 40 38 36 35 35 36 37 37 37 37 37 38 41 42 41
28 29 29 29 29 30 30 30 31 31 31 31 31 30 29 28 28 29 29 30 31 32 32 32 32 32 32 31 30 30 32 34 37 39 41 41 41 41 42 44 46 48 49 48 47 46 45 45 46 46 45 45 44 44 44 44 45 45 45 44 43 43 43 43 43 44 44 44 44 43 43 41 40 38 36 36 36 37 37 37 38 39 41 45 47 45
28 28 29 29 30 30 31 31 31 31 32 31 30 29 29 28 28 29 30 31 32 32 33 32 32 32 32 32 32 33 34 36 38 41 42 42 42 42 43 45 47 49 50 50 49 47 44 43 44 45 46 46 45 45 45 45 46 46 46 45 45 45 45 46 47 46 46 45 45 44 44 42 41 39 38 37 37 37 37 37 39 42 45 49 50 48
29 29 30 30 31 31 31 31 32 31 31 30 29 29 28 28 28 29 30 31 31 32 33 32 32 32 32 34 35 36 37 38 39 41 42 43 43 43 44 45 47 49 51 52 51 50 48 45 44 44 45 45 45 45 45 46 47 47 48 48 48 49 49 50 51 50 48 47 46 45 44 43 41 40 40 40 39 39 38 38 41 45 49 51 51 50
29 30 30 31 31 31 31 31 31 31 30 29 29 28 28 28 28 29 30 30 31 32 32 32 32 32 33 35 36 38 39 39 41 42 43 43 43 44 44 45 46 48 49 52 53 53 53 50 47 45 44 45 45 45 46 47 48 48 49 50 51 52 53 54 55 55 53 50 48 46 45 43 42 41 42 42 42 41 40 40 43 47 52 51 51 51
30 31 31 31 31 31 31 31 30 30 29 28 28 27 27 28 28 29 30 31 32 32 33 33 34 34 35 36 37 38 40 41 42 43 43 44 44 44 45 46 47 48 49 51 52 53 55 54 51 49 46 46 47 48 48 49 49 49 49 50 52 53 54 56 57 58 57 55 52 49 46 44 43 42 43 44 44 43 42 42 46 50 52 52 51 51
31 31 31 31 31 31 31 30 30 29 28 28 27 27 28 28 29 29 30 31 32 33 34 34 35 36 37 38 38 39 40 41 42 44 44 45 45 45 46 47 48 49 50 50 51 52 53 53 53 52 50 50 50 51 52 52 52 51 51 51 51 52 53 55 57 58 59 57 55 52 48 46 44 43 44 46 46 46 43 45 49 53 53 53 52 51
31 30 30 30 30 30 30 30 29 28 28 27 27 27 28 28 29 30 31 32 33 34 35 35 36 37 38 39 39 40 40 41 42 43 45 46 46 46 47 48 49 51 52 51 51 51 51 51 51 52 52 52 52 53 54 54 55 54 53 52 51 50 50 52 55 58 60 59 58 55 52 49 46 46 46 48 49 48 45 47 51 55 55 54 53 52
30 31 30 31 30 30 30 29 29 28 28 27 27 27 27 28 29 30 32 33 34 35 36 37 37 38 38 39 40 41 40 40 41 43 46 46 47 47 48 49 51 52 54 54 54 53 53 51 51 51 52 53 53 53 53 54 55 55 55 53 51 49 47 49 53 57 60 61 60 58 55 52 50 49 49 51 51 49 47 49 53 56 56 54 54 53
31 31 31 31 31 30 30 30 29 28 28 27 27 27 27 28 29 31 32 33 35 36 37 38 38 39 39 40 40 40 40 41 42 44 46 47 48 48 49 50 52 54 56 57 57 57 56 55 54 54 54 54 54 55 55 54 54 54 54 53 51 48 46 47 51 56 61 62 62 60 57 55 53 53 53 54 53 51 48 50 54 58 58 55 54 53
32 32 32 32 32 32 31 30 30 29 28 27 27 27 27 28 30 31 33 35 36 37 38 39 39 39 40 40 41 41 41 42 43 45 46 48 49 50 50 51 53 55 57 59 60 61 61 61 60 59 58 57 56 56 57 57 57 56 54 52 50 48 46 47 50 55 60 63 63 62 59 56 56 57 58 58 56 53 50 52 58 62 63 56 54 53
34 34 34 34 33 33 32 31 30 29 28 27 27 27 28 29 30 32 34 36 38 39 40 40 40 40 39 40 40 41 42 43 44 45 46 47 49 50 51 53 54 57 59 62 63 65 66 66 65 64 63 61 59 58 58 58 59 58 57 54 50 47 46 47 49 53 58 62 64 63 60 58 57 59 62 63 60 57 55 60 64 66 66 59 55 53
36 36 35 35 35 34 33 32 31 30 28 28 28 28 29 30 31 33 35 37 38 40 41 42 41 41 40 40 41 41 42 43 45 46 46 47 48 50 52 54 56 58 61 63 66 68 69 69 69 68 66 65 63 61 59 59 59 59 59 58 54 50 46 47 49 52 56 61 64 64 62 59 59 61 65 66 65 63 63 68 69 67 64 59 54 52
37 37 37 36 36 35 34 33 31 30 30 29 29 29 30 31 32 34 35 37 39 40 42 42 42 42 41 41 42 43 44 45 46 47 47 47 47 49 51 54 57 60 62 64 66 68 70 71 70 70 68 67 65 64 62 60 59 59 60 59 57 53 49 47 49 51 55 60 63 65 64 61 61 62 66 68 67 68 71 74 73 70 65 58 53 51
38 38 38 37 37 36 35 34 33 32 32 31 31 31 31 32 34 35 37 38 40 41 43 43 43 42 41 41 42 44 45 47 47 48 47 47 47 48 51 54 58 61 64 65 66 67 68 69 70 70 70 68 67 65 64 61 60 59 59 59 57 54 50 48 48 50 55 60 63 65 65 63 62 63 66 68 69 71 75 76 75 72 68 63 59 56
39 39 38 38 38 37 36 35 34 33 33 33 33 33 33 34 35 36 38 40 41 43 44 44 44 44 42 41 42 43 46 47 49 49 48 47 47 49 51 55 59 62 65 68 68 67 66 67 68 69 70 69 68 67 66 65 62 60 58 58 58 57 55 50 49 50 54 59 63 66 66 64 64 64 66 67 68 71 77 76 75 73 72 70 67 65
40 39 39 39 39 38 38 37 36 35 35 34 35 35 35 36 37 38 39 41 42 43 45 45 45 45 44 43 43 44 45 47 48 49 48 47 48 49 52 56 60 64 67 69 70 70 68 67 67 67 69 69 69 69 68 67 66 63 60 59 59 59 58 55 52 52 54 58 63 66 67 65 64 64 64 65 67 70 76 76 75 74 73 73 71 69
41 41 40 41 40 40 40 39 38 37 36 36 36 37 37 38 39 40 40 41 43 44 46 47 47 46 45 44 44 45 45 46 47 47 47 47 48 50 53 56 60 64 67 68 68 69 69 69 68 68 68 69 70 70 70 69 68 66 63 61 60 60 58 56 55 55 56 59 62 65 66 65 64 63 63 63 65 69 75 75 75 74 74 74 73 71
42 42 42 42 42 42 41 40 39 39 39 38 39 39 40 41 41 41 41 42 43 45 47 48 48 47 45 45 45 46 47 47 46 46 45 46 47 50 53 56 60 64 67 68 69 69 70 70 70 70 71 71 71 70 70 70 70 68 65 63 62 61 59 57 56 56 57 59 62 64 65 65 64 63 62 62 62 65 73 75 75 74 74 75 74 71
44 43 43 43 43 43 42 42 41 41 41 41 41 42 42 43 42 42 41 42 43 45 47 48 48 47 46 45 46 47 48 48 47 45 44 45 47 49 53 56 60 64 68 69 70 71 72 72 73 73 73 74 73 72 70 70 70 69 67 66 64 63 62 59 57 55 56 58 61 63 64 64 64 63 61 61 61 62 69 73 75 75 75 76 75 72
45 44 44 44 44 44 44 43 43 43 43 43 43 44 45 45 44 43 42 42 43 46 48 48 48 47 45 45 46 47 49 49 47 45 44 45 48 50 53 56 60 64 68 69 70 72 73 74 75 75 76 76 75 74 72 71 70 70 68 68 67 65 64 61 58 56 56 57 60 62 64 65 65 64 63 61 60 61 65 72 75 76 77 77 76 73
46 45 45 45 45 45 44 44 45 45 44 45 45 46 46 46 45 43 42 42 44 46 48 48 47 45 44 44 44 46 47 47 46 45 44 46 49 52 55 57 61 64 67 69 70 71 72 73 74 75 76 76 76 75 73 72 70 69 69 68 68 67 66 62 59 56 56 57 59 61 63 64 65 65 65 63 61 60 62 69 74 76 77 77 76 73
47 46 46 46 45 45 46 46 46 46 46 46 47 48 48 47 45 43 41 42 43 46 47 47 46 44 42 42 42 44 45 46 45 45 46 48 51 54 57 60 62 66 68 69 70 70 71 71 70 70 70 72 73 74 73 71 70 69 68 68 68 67 66 63 59 56 55 56 58 60 62 63 64 65 66 65 63 61 60 66 73 77 77 77 76 73
47 47 47 46 46 46 46 46 47 47 47 48 49 49 49 47 44 42 40 41 42 44 47 46 44 42 40 40 40 42 43 44 45 46 47 51 54 58 60 63 66 69 71 71 71 71 71 71 69 67 65 65 68 70 71 70 69 68 67 66 66 66 66 63 60 56 55 55 57 59 60 62 63 65 67 66 64 62 58 64 71 76 77 77 76 73